Weather reports worldwide

Advertisment
Fyvie castle, United Kingdom (99010): temperature & dewpoint: 30.06.2020 06:00:00 - 06.07.2020 06:00:00 (BST)Fyvie castle, United Kingdom (99010): precipitation: 30.06.2020 06:00:00 - 06.07.2020 06:00:00 (BST)
Date & Time tt [°C] td [°C] rr [mm]
06.07.2020 06:00:00 - - 0,6
06.07.2020 05:00:00 10,2 9,4 0,4
06.07.2020 04:00:00 9,8 8,9 0,2
06.07.2020 03:00:00 9,6 8,8 0,0
06.07.2020 02:00:00 9,6 8,8 0,0
06.07.2020 01:00:00 9,3 8,7 0,6
06.07.2020 00:00:00 9,4 8,9 1,8
05.07.2020 23:00:00 9,3 8,7 4,2
05.07.2020 22:00:00 9,8 9,4 2,4
05.07.2020 21:00:00 10,2 9,4 1,4
05.07.2020 20:00:00 10,5 9,8 0,4
05.07.2020 19:00:00 10,3 8,6 5,8
05.07.2020 18:00:00 13,2 9,4 0,2
05.07.2020 17:00:00 11,6 9,3 0,8
05.07.2020 16:00:00 11,4 8,2 1,4
05.07.2020 15:00:00 15,1 9,3 0,8
05.07.2020 14:00:00 15,3 9,4 0,0
05.07.2020 13:00:00 15,3 8,9 0,0
05.07.2020 12:00:00 14,0 11,3 0,4
05.07.2020 11:00:00 14,2 8,7 0,0
05.07.2020 10:00:00 13,4 9,2 0,0
05.07.2020 09:00:00 12,1 9,4 0,0
05.07.2020 08:00:00 11,3 9,7 0,0
05.07.2020 07:00:00 10,7 9,7 0,0
05.07.2020 06:00:00 10,7 10,1 0,2
05.07.2020 05:00:00 10,9 10,7 0,6
05.07.2020 04:00:00 11,0 11,0 0,4
05.07.2020 03:00:00 11,0 11,0 1,6
05.07.2020 02:00:00 11,2 11,1 4,6
05.07.2020 01:00:00 11,2 11,0 4,2
05.07.2020 00:00:00 11,1 10,6 2,2
04.07.2020 23:00:00 11,8 11,2 1,2
04.07.2020 22:00:00 12,1 11,2 0,0
04.07.2020 21:00:00 12,4 11,1 0,0
04.07.2020 20:00:00 12,7 10,7 0,0
04.07.2020 19:00:00 15,3 11,0 0,0
04.07.2020 18:00:00 14,4 10,7 0,0
04.07.2020 17:00:00 15,2 11,6 0,0
04.07.2020 16:00:00 15,0 10,9 0,0
04.07.2020 15:00:00 12,5 11,3 0,6
04.07.2020 14:00:00 14,2 9,5 0,0
04.07.2020 13:00:00 14,6 9,6 0,0
04.07.2020 12:00:00 14,0 9,6 0,0
04.07.2020 11:00:00 13,2 9,1 0,0
04.07.2020 10:00:00 13,1 9,4 0,0
04.07.2020 09:00:00 11,6 11,6 0,0
04.07.2020 08:00:00 9,1 9,1 0,0
04.07.2020 07:00:00 7,3 7,3 0,0
04.07.2020 06:00:00 5,4 5,4 0,0
04.07.2020 05:00:00 5,0 4,9 0,0
04.07.2020 04:00:00 5,4 5,2 0,0
04.07.2020 03:00:00 6,5 6,4 0,0
04.07.2020 02:00:00 7,1 7,1 0,0
04.07.2020 01:00:00 7,5 7,5 0,0
04.07.2020 00:00:00 7,4 7,0 0,0
03.07.2020 23:00:00 8,4 7,7 0,0
03.07.2020 22:00:00 10,4 9,5 0,0
03.07.2020 21:00:00 12,1 10,1 0,0
03.07.2020 20:00:00 12,3 10,8 0,0
03.07.2020 19:00:00 12,5 11,1 0,0
03.07.2020 18:00:00 13,1 12,3 1,8
03.07.2020 17:00:00 12,7 12,1 1,4
03.07.2020 16:00:00 12,6 11,9 1,4
03.07.2020 15:00:00 12,7 10,5 0,2
03.07.2020 14:00:00 12,9 10,6 0,0
03.07.2020 13:00:00 11,7 10,0 0,0
03.07.2020 12:00:00 11,0 8,8 0,0
03.07.2020 11:00:00 11,1 8,1 0,0
03.07.2020 10:00:00 10,8 8,4 0,0
03.07.2020 09:00:00 10,8 8,6 0,0
03.07.2020 08:00:00 9,0 7,9 0,2
03.07.2020 07:00:00 8,6 7,6 0,2
03.07.2020 06:00:00 8,6 7,0 0,2
03.07.2020 05:00:00 9,0 7,1 0,2
03.07.2020 04:00:00 9,1 8,7 0,0
03.07.2020 03:00:00 8,5 8,5 0,0
03.07.2020 02:00:00 8,4 8,1 0,0
03.07.2020 01:00:00 8,5 7,9 0,0
03.07.2020 00:00:00 9,5 9,0 0,0
02.07.2020 23:00:00 10,0 9,3 0,0
02.07.2020 22:00:00 10,3 9,0 0,0
02.07.2020 21:00:00 10,8 9,1 0,8
02.07.2020 20:00:00 12,1 7,7 0,0
02.07.2020 19:00:00 13,3 8,7 0,0
02.07.2020 18:00:00 13,8 9,4 0,0
02.07.2020 17:00:00 13,1 7,4 0,0
02.07.2020 16:00:00 14,1 6,2 0,0
02.07.2020 15:00:00 14,1 6,0 0,0
02.07.2020 14:00:00 14,5 5,8 0,0
02.07.2020 13:00:00 13,3 5,9 0,0
02.07.2020 12:00:00 12,1 5,2 0,0
02.07.2020 11:00:00 10,9 6,5 0,0
02.07.2020 10:00:00 10,9 6,5 0,0
02.07.2020 09:00:00 10,6 7,0 0,0
02.07.2020 08:00:00 9,7 7,4 0,2
02.07.2020 07:00:00 8,9 7,4 0,0
02.07.2020 06:00:00 7,7 6,8 0,0
02.07.2020 05:00:00 7,2 6,5 0,0
02.07.2020 04:00:00 6,6 6,0 0,0
02.07.2020 03:00:00 7,2 6,9 0,0
02.07.2020 02:00:00 6,9 6,6 0,0
02.07.2020 01:00:00 7,0 6,3 0,0
02.07.2020 00:00:00 8,4 7,6 0,0
01.07.2020 23:00:00 8,0 6,6 0,0
01.07.2020 22:00:00 9,5 6,7 0,0
01.07.2020 21:00:00 10,8 5,8 0,0
01.07.2020 20:00:00 11,7 5,5 0,0
01.07.2020 19:00:00 12,2 5,4 0,0
01.07.2020 18:00:00 12,4 5,3 0,0
01.07.2020 17:00:00 13,0 5,1 0,0
01.07.2020 16:00:00 13,3 6,4 0,0
01.07.2020 15:00:00 13,6 5,7 0,0
01.07.2020 14:00:00 13,3 6,1 0,0
01.07.2020 13:00:00 13,4 5,7 0,0
01.07.2020 12:00:00 13,3 5,7 0,0
01.07.2020 11:00:00 12,0 6,0 0,0
01.07.2020 10:00:00 12,3 9,6 0,0
01.07.2020 09:00:00 10,4 9,4 0,0
01.07.2020 08:00:00 10,6 9,7 0,0
01.07.2020 07:00:00 10,7 10,1 0,2
01.07.2020 06:00:00 10,9 10,4 0,0
01.07.2020 05:00:00 10,9 10,6 0,2
01.07.2020 04:00:00 11,1 10,8 0,0
01.07.2020 03:00:00 11,2 10,3 0,0
01.07.2020 02:00:00 11,1 10,0 0,0
01.07.2020 01:00:00 11,4 10,4 0,0
01.07.2020 00:00:00 11,7 10,6 0,2
30.06.2020 23:00:00 12,2 11,5 0,2
30.06.2020 22:00:00 13,5 11,6 0,0
30.06.2020 21:00:00 13,9 11,2 0,0
30.06.2020 20:00:00 14,4 11,3 0,0
30.06.2020 19:00:00 14,7 10,8 0,0
30.06.2020 18:00:00 16,1 11,5 0,0
30.06.2020 17:00:00 17,0 11,1 0,0
30.06.2020 16:00:00 17,2 12,1 0,0
30.06.2020 15:00:00 15,1 11,3 0,0
30.06.2020 14:00:00 14,4 12,3 0,0
30.06.2020 13:00:00 14,5 12,6 0,2
30.06.2020 12:00:00 12,9 12,3 2,6
30.06.2020 11:00:00 13,1 12,0 0,2
30.06.2020 10:00:00 13,9 11,9 0,0
30.06.2020 09:00:00 13,6 12,2 0,0
30.06.2020 08:00:00 12,8 12,2 0,2
30.06.2020 07:00:00 12,1 11,9 0,8
30.06.2020 06:00:00 12,2 11,6 0,4

tt = temperature
td = dewpoint
rr = precipitation

Next stations